Home   Weather   Marigot   Past weeks

Past Weather in Marigot, Saint Martin — Yesterday and Last 2 Weeks

Now
86 °F

Passing clouds.


Feels Like: 93 °F
Forecast: 83 / 87 °F
Wind: 23 mph from East

Location: Juliana Airport - Saint Maarten

Current Time: Sep 29, 2016 at 9:42:47 AM

Latest Report: Sep 29, 2016 at 9:00 AM


Visibility: N/A

Pressure: 29.92 "Hg

Humidity: 66%

Dew Point: 73 °F

Location of MarigotLocation

Past Weather in Marigot — Graph

°F

Marigot Temperature Yesterday

Maximum temperature yesterday: 90 °F (at 12:00 PM)
Minimum temperature yesterday: 79 °F (at 5:00 PM)
Average temperature yesterday: 85 °F

High & Low Weather Summary for the Past Weeks

 TemperatureHumidityPressure
High90 °F (Sep 14, 1:00 PM)100% (Sep 17, 7:00 AM)30.04 "Hg (Sep 17, 7:00 AM)
Low75 °F (Sep 17, 7:00 AM)59% (Sep 14, 1:00 PM)29.83 "Hg (Sep 21, 3:00 AM)
Average84 °F78%29.95 "Hg
* Reported Sep 14 8:00 AM — Sep 29 8:00 AM, Marigot, Weather by CustomWeather, © 2016

Note: Actual official high and low records may vary slightly from our data, if they occured in-between our weather recording intervals... More about our weather records

Advertising

Marigot Weather History for the Previous 24 Hours

Scroll right to see more
 ConditionsComfort  
Time TempWeatherWind HumidityBarometerVisibility
8:00 AM
Thu, Sep 29
84 °FPassing clouds.22 mph70%29.95 "HgN/A
7:00 AM84 °FPassing clouds.24 mph74%29.95 "HgN/A
6:00 AM84 °FPassing clouds.24 mph70%29.95 "HgN/A
5:00 AM84 °FPassing clouds.21 mph79%29.92 "HgN/A
4:00 AM84 °FSprinkles. Passing clouds.20 mph79%29.92 "Hg6 mi
3:00 AM82 °FPassing clouds.21 mph84%29.92 "HgN/A
2:00 AM84 °FPassing clouds.20 mph74%29.95 "HgN/A
1:00 AM82 °FPassing clouds.18 mph84%29.95 "HgN/A
12:00 AM82 °FPassing clouds.23 mph79%29.95 "HgN/A
11:00 PM
Wed, Sep 28
81 °FPassing clouds.23 mph84%30.01 "HgN/A
10:00 PM84 °FPassing clouds.22 mph79%30.01 "HgN/A
9:00 PM84 °FPassing clouds.15 mph79%30.01 "HgN/A
8:00 PM84 °FPassing clouds.16 mph74%29.98 "HgN/A
7:00 PM82 °FPassing clouds.17 mph79%29.95 "HgN/A
6:00 PM81 °FPassing clouds.18 mph84%29.95 "HgN/A
5:00 PM79 °FScattered clouds.21 mph100%29.97 "HgN/A
4:00 PM82 °FScattered clouds.21 mph100%29.95 "HgN/A
3:00 PM86 °FWarm.N/A75%29.92 "HgN/A
2:00 PM88 °FScattered clouds.22 mph75%29.95 "HgN/A
1:00 PM90 °FScattered clouds.20 mph67%29.95 "HgN/A
12:00 PM90 °FScattered clouds.22 mph63%29.98 "HgN/A
11:00 AM88 °FScattered clouds.22 mph75%30.01 "HgN/A
10:00 AM88 °FPartly sunny.18 mph70%30.01 "HgN/A
9:00 AM88 °FScattered clouds.18 mph70%30.01 "HgN/A
Weather by CustomWeather, © 2016

See weather overviewHow to use our weather pages